Weather History for Audubon, IA

Change the Weather History Date:

Friday, January 18, 2013

  Actual Average Record
Temperature  
Mean Temperature 40 °F -  
Max Temperature 50 °F 30 °F 54 °F (1951)
Min Temperature 30 °F 12 °F -17 °F (1967)
Degree Days  
Heating Degree Days 25    
Moisture  
Dew Point 31 °F    
Average Humidity 73    
Maximum Humidity 87    
Minimum Humidity 50    
Precipitation  
Precipitation 0.00 in - - ()
Sea Level Pressure  
Sea Level Pressure 30.01 in    
Wind  
Wind Speed 12 mph (SSW)    
Max Wind Speed 22 mph    
Max Gust Speed 32 mph    
Visibility 10 miles    
Events      
Averages and records for this station are not official NWS values.
T = Trace of Precipitation, MM = Missing Value Source: NWS Daily Summary

Daily Weather History Graph

Daily Weather History Graph

Search for Another Location

Airport:

Trip Planner

Search our weather history database for the weather conditions in past years. The results will help you decide how hot, cold, wet, or windy it might be!

Date:

Astronomy

Jan. 18, 2013 Rise Set
Actual Time 7:42 AM CST 5:18 PM CST
Civil Twilight 7:12 AM CST 5:48 PM CST
Nautical Twilight 6:38 AM CST 6:22 PM CST
Astronomical Twilight 6:05 AM CST 6:55 PM CST
Moon 11:14 AM CST (1/18) 12:15 AM CST (1/18)
Length of Visible Light 10h 36m
Length of Day
9h 35m
Waxing Crescent, 47% of the Moon is Illuminated
Jan 18
Waxing Crescent
Jan 18
First Quarter
Jan 26
Full
Feb 3
Last Quarter
Feb 10
New

Hourly Weather History & Observations

Time (CST) Temp. Windchill Dew Point Humidity Pressure Visibility Wind Dir Wind Speed Gust Speed Precip Events Conditions
12:15 AM 30.2 °F 24.3 °F 26.6 °F 86% 30.29 in 10.0 mi South 5.8 mph - N/A   Clear
12:35 AM 30.2 °F 21.3 °F 26.6 °F 86% 30.27 in 10.0 mi South 10.4 mph - N/A   Clear
12:55 AM 30.2 °F 21.3 °F 26.6 °F 86% 30.27 in 10.0 mi South 10.4 mph - N/A   Clear
1:15 AM 30.2 °F 21.3 °F 26.6 °F 86% 30.25 in 10.0 mi South 10.4 mph - N/A   Clear
1:35 AM 30.2 °F 21.9 °F 26.6 °F 86% 30.25 in 10.0 mi South 9.2 mph - N/A   Clear
1:55 AM 30.2 °F 20.2 °F 26.6 °F 86% 30.24 in 10.0 mi South 12.7 mph 17.3 mph N/A   Clear
2:15 AM 30.2 °F 21.3 °F 26.6 °F 86% 30.23 in 10.0 mi South 10.4 mph - N/A   Clear
2:35 AM 30.2 °F 21.3 °F 26.6 °F 86% 30.23 in 10.0 mi South 10.4 mph - N/A   Clear
2:55 AM 30.2 °F 23.4 °F 26.6 °F 86% 30.21 in 10.0 mi South 6.9 mph - N/A   Clear
3:15 AM 30.2 °F 24.3 °F 26.6 °F 86% 30.21 in 10.0 mi South 5.8 mph - N/A   Clear
3:35 AM 30.2 °F 24.3 °F 26.6 °F 86% 30.20 in 10.0 mi South 5.8 mph - N/A   Clear
3:55 AM 30.2 °F 20.2 °F 26.6 °F 86% 30.18 in 10.0 mi South 12.7 mph - N/A   Clear
4:15 AM 33.8 °F 23.5 °F 28.4 °F 81% 30.16 in 10.0 mi South 16.1 mph - N/A   Clear
4:35 AM 32.0 °F 22.1 °F 28.4 °F 87% 30.15 in 10.0 mi South 13.8 mph - N/A   Clear
4:55 AM 32.0 °F 23.0 °F 28.4 °F 87% 30.14 in 10.0 mi South 11.5 mph - N/A   Clear
5:15 AM 32.0 °F 22.1 °F 26.6 °F 80% 30.12 in 10.0 mi South 13.8 mph 17.3 mph N/A   Clear
5:35 AM 33.8 °F 23.5 °F 28.4 °F 81% 30.11 in 10.0 mi South 16.1 mph 23.0 mph N/A   Clear
5:55 AM 32.0 °F 24.2 °F 28.4 °F 87% 30.10 in 10.0 mi SSW 9.2 mph 21.9 mph N/A   Clear
6:15 AM 32.0 °F 23.6 °F 28.4 °F 87% 30.09 in 10.0 mi SSW 10.4 mph - N/A   Clear
6:35 AM 32.0 °F 23.0 °F 28.4 °F 87% 30.09 in 10.0 mi SSW 11.5 mph - N/A   Clear
6:55 AM 33.8 °F 25.3 °F 28.4 °F 81% 30.08 in 10.0 mi SSW 11.5 mph 17.3 mph N/A   Clear
7:15 AM 33.8 °F 24.3 °F 28.4 °F 81% 30.07 in 10.0 mi SSW 13.8 mph - N/A   Clear
7:35 AM 33.8 °F 23.9 °F 28.4 °F 81% 30.06 in 10.0 mi SSW 15.0 mph - N/A   Clear
7:55 AM 33.8 °F 23.9 °F 28.4 °F 81% 30.05 in 10.0 mi SSW 15.0 mph 24.2 mph N/A   Clear
8:15 AM 33.8 °F 23.5 °F 28.4 °F 81% 30.05 in 10.0 mi SSW 16.1 mph - N/A   Clear
8:35 AM 35.6 °F 25.2 °F 30.2 °F 81% 30.04 in 10.0 mi SSW 18.4 mph 25.3 mph N/A   Clear
8:55 AM 37.4 °F 27.5 °F 30.2 °F 75% 30.03 in 10.0 mi SSW 18.4 mph 27.6 mph N/A   Clear
9:15 AM 37.4 °F 26.9 °F 30.2 °F 75% 30.03 in 10.0 mi SSW 20.7 mph 27.6 mph N/A   Clear
9:35 AM 37.4 °F 26.9 °F 30.2 °F 75% 30.03 in 10.0 mi SSW 20.7 mph 29.9 mph N/A   Clear
10:15 AM 39.2 °F 29.3 °F 32.0 °F 75% 30.02 in 10.0 mi SSW 20.7 mph 27.6 mph N/A   Clear
10:35 AM 41.0 °F 31.4 °F 33.8 °F 76% 30.00 in 10.0 mi SSW 21.9 mph 28.8 mph N/A   Clear
10:55 AM 42.8 °F 34.8 °F 33.8 °F 70% 29.99 in 10.0 mi SSW 17.3 mph 32.2 mph N/A   Clear
11:15 AM 44.6 °F 36.6 °F 33.8 °F 66% 29.98 in 10.0 mi SW 19.6 mph 27.6 mph N/A   Clear
11:35 AM 44.6 °F 37.4 °F 33.8 °F 66% 29.99 in 10.0 mi SW 16.1 mph 28.8 mph N/A   Clear
11:55 AM 46.4 °F 39.0 °F 33.8 °F 62% 29.98 in 10.0 mi SW 19.6 mph 25.3 mph N/A   Clear
12:15 PM 46.4 °F 40.1 °F 33.8 °F 62% 29.95 in 10.0 mi SW 15.0 mph 28.8 mph N/A   Clear
12:35 PM 46.4 °F 39.0 °F 33.8 °F 62% 29.93 in 10.0 mi SW 19.6 mph 25.3 mph N/A   Clear
12:55 PM 48.2 °F - 33.8 °F 58% 29.91 in 10.0 mi SW 20.7 mph 28.8 mph N/A   Clear
1:15 PM 48.2 °F - 33.8 °F 58% 29.90 in 10.0 mi SW 19.6 mph 27.6 mph N/A   Clear
1:35 PM 48.2 °F - 33.8 °F 58% 29.90 in 10.0 mi SW 18.4 mph 27.6 mph N/A   Clear
1:55 PM 50.0 °F - 33.8 °F 54% 29.91 in 10.0 mi SW 20.7 mph 27.6 mph N/A   Clear
2:15 PM 50.0 °F - 33.8 °F 54% 29.91 in 10.0 mi SW 20.7 mph 26.5 mph N/A   Clear
2:35 PM 50.0 °F - 33.8 °F 54% 29.90 in 10.0 mi SW 19.6 mph 25.3 mph N/A   Clear
2:55 PM 50.0 °F - 33.8 °F 54% 29.90 in 10.0 mi SSW 16.1 mph 25.3 mph N/A   Clear
3:15 PM 50.0 °F - 33.8 °F 54% 29.90 in 10.0 mi SW 18.4 mph 25.3 mph N/A   Clear
3:35 PM 50.0 °F - 32.0 °F 50% 29.90 in 10.0 mi SW 19.6 mph 25.3 mph N/A   Clear
3:55 PM 50.0 °F - 33.8 °F 54% 29.90 in 10.0 mi SW 13.8 mph - N/A   Clear
4:15 PM 48.2 °F - 33.8 °F 58% 29.91 in 10.0 mi SW 13.8 mph 17.3 mph N/A   Clear
4:35 PM 48.2 °F - 33.8 °F 58% 29.90 in 10.0 mi SW 12.7 mph 17.3 mph N/A   Clear
4:55 PM 46.4 °F 41.1 °F 33.8 °F 62% 29.91 in 10.0 mi SW 11.5 mph 18.4 mph N/A   Clear
5:15 PM 44.6 °F 38.4 °F 33.8 °F 66% 29.92 in 10.0 mi SW 12.7 mph - N/A   Clear
5:35 PM 44.6 °F 39.2 °F 32.0 °F 61% 29.92 in 10.0 mi SW 10.4 mph - N/A   Clear
5:55 PM 42.8 °F 37.5 °F 32.0 °F 66% 29.92 in 10.0 mi SW 9.2 mph - N/A   Clear
6:15 PM 41.0 °F 36.4 °F 30.2 °F 65% 29.93 in 10.0 mi WSW 6.9 mph - N/A   Clear
6:35 PM 39.2 °F 33.6 °F 30.2 °F 70% 29.93 in 10.0 mi SW 8.1 mph - N/A   Clear
6:55 PM 39.2 °F 34.2 °F 30.2 °F 70% 29.93 in 10.0 mi SW 6.9 mph - N/A   Clear
7:15 PM 39.2 °F 33.0 °F 30.2 °F 70% 29.94 in 10.0 mi SW 9.2 mph - N/A   Clear
7:35 PM 39.2 °F 32.5 °F 32.0 °F 75% 29.93 in 10.0 mi SW 10.4 mph - N/A   Clear
7:55 PM 39.2 °F 33.0 °F 30.2 °F 70% 29.93 in 10.0 mi SW 9.2 mph - N/A   Clear
8:15 PM 41.0 °F 34.7 °F 32.0 °F 70% 29.92 in 10.0 mi SW 10.4 mph - N/A   Clear
8:35 PM 41.0 °F 33.9 °F 32.0 °F 70% 29.92 in 10.0 mi SW 12.7 mph - N/A   Clear
8:55 PM 39.2 °F 32.5 °F 32.0 °F 75% 29.91 in 10.0 mi SW 10.4 mph 16.1 mph N/A   Clear
9:15 PM 39.2 °F 32.5 °F 32.0 °F 75% 29.91 in 10.0 mi SW 10.4 mph - N/A   Clear
9:35 PM 39.2 °F 32.5 °F 30.2 °F 70% 29.90 in 10.0 mi SW 10.4 mph - N/A   Clear
9:55 PM 39.2 °F 32.5 °F 30.2 °F 70% 29.90 in 10.0 mi SW 10.4 mph - N/A   Clear
10:15 PM 39.2 °F 33.0 °F 32.0 °F 75% 29.90 in 10.0 mi SSW 9.2 mph - N/A   Clear
10:35 PM 37.4 °F 31.4 °F 30.2 °F 75% 29.90 in 10.0 mi South 8.1 mph - N/A   Clear
10:55 PM 35.6 °F 30.7 °F 30.2 °F 81% 29.89 in 10.0 mi South 5.8 mph - N/A   Clear
11:15 PM 37.4 °F 30.3 °F 30.2 °F 75% 29.88 in 10.0 mi South 10.4 mph - N/A   Clear
11:35 PM 39.2 °F 32.0 °F 30.2 °F 70% 29.88 in 10.0 mi SSW 11.5 mph 16.1 mph N/A   Clear
11:55 PM 39.2 °F 31.6 °F 30.2 °F 70% 29.87 in 10.0 mi SSW 12.7 mph - N/A   Clear